Hourly Weather Juayùa

Today, 5 December, Saturday

Time Temperature Precipitation Wind Pressure Humidity
00:00 +17°C° 0 mm 2 mps 667 mmHg 87%
01:00 +17°C° 0 mm 2 mps 667 mmHg 87%
02:00 +17°C° 0 mm 2 mps 666 mmHg 87%
03:00 +17°C° 0 mm 2 mps 666 mmHg 87%
04:00 +17°C° 0 mm 2 mps 666 mmHg 86%
05:00 +17°C° 0 mm 2 mps 666 mmHg 86%
06:00 +17°C° 0 mm 2 mps 666 mmHg 86%
07:00 +19°C° 0 mm 2 mps 667 mmHg 79%
08:00 +20°C° 0 mm 2 mps 668 mmHg 73%
09:00 +23°C° 0 mm 1 mps 669 mmHg 67%
10:00 +24°C° 0 mm 2 mps 669 mmHg 64%
11:00 +25°C° 0 mm 2 mps 669 mmHg 61%
12:00 +26°C° 0 mm 2 mps 669 mmHg 58%
13:00 +26°C° 0.1 mm 2 mps 668 mmHg 60%
14:00 +26°C° 0.1 mm 1 mps 668 mmHg 62%
15:00 +25°C° 0.1 mm 1 mps 667 mmHg 65%
16:00 +23°C° 0.2 mm 1 mps 667 mmHg 74%
17:00 +22°C° 0.2 mm 1 mps 667 mmHg 82%
18:00 +20°C° 0.2 mm 1 mps 666 mmHg 91%
19:00 +19°C° 0 mm 1 mps 667 mmHg 91%
20:00 +19°C° 0 mm 1 mps 667 mmHg 91%
21:00 +19°C° 0 mm 1 mps 668 mmHg 91%
22:00 +19°C° 0 mm 1 mps 667 mmHg 91%
23:00 +19°C° 0 mm 1 mps 667 mmHg 90%

Tomorrow, 6 December, Sunday

Time Temperature Precipitation Wind Pressure Humidity
00:00 +18°C° 0 mm 1 mps 667 mmHg 90%
01:00 +18°C° 0 mm 1 mps 666 mmHg 90%
02:00 +18°C° 0 mm 1 mps 666 mmHg 90%
03:00 +17°C° 0 mm 2 mps 665 mmHg 90%
04:00 +17°C° 0 mm 2 mps 666 mmHg 90%
05:00 +17°C° 0 mm 2 mps 666 mmHg 90%
06:00 +17°C° 0 mm 2 mps 666 mmHg 90%
07:00 +19°C° 0 mm 1 mps 667 mmHg 84%
08:00 +21°C° 0 mm 1 mps 667 mmHg 78%
09:00 +23°C° 0 mm 1 mps 668 mmHg 72%
10:00 +24°C° 0 mm 1 mps 668 mmHg 67%
11:00 +25°C° 0 mm 1 mps 668 mmHg 62%
12:00 +26°C° 0 mm 2 mps 668 mmHg 57%
13:00 +26°C° 0.1 mm 1 mps 668 mmHg 60%
14:00 +26°C° 0.1 mm 1 mps 667 mmHg 62%
15:00 +25°C° 0.1 mm 1 mps 666 mmHg 64%
16:00 +23°C° 0.1 mm 1 mps 666 mmHg 73%
17:00 +22°C° 0.1 mm 1 mps 666 mmHg 82%
18:00 +18°C° 0.1 mm 0 mps 666 mmHg 91%
19:00 +19°C° 0 mm 1 mps 666 mmHg 90%
20:00 +19°C° 0 mm 1 mps 666 mmHg 90%
21:00 +19°C° 0 mm 1 mps 667 mmHg 90%
22:00 +19°C° 0 mm 1 mps 667 mmHg 90%
23:00 +19°C° 0 mm 1 mps 667 mmHg 90%

Day after tomorrow, 7 December, Monday

Time Temperature Precipitation Wind Pressure Humidity
00:00 +18°C° 0 mm 1 mps 667 mmHg 90%
01:00 +18°C° 0 mm 1 mps 666 mmHg 90%
02:00 +18°C° 0 mm 1 mps 666 mmHg 91%
03:00 +17°C° 0 mm 2 mps 665 mmHg 91%
04:00 +17°C° 0 mm 2 mps 665 mmHg 91%
05:00 +17°C° 0 mm 2 mps 666 mmHg 90%
06:00 +17°C° 0 mm 2 mps 666 mmHg 90%
07:00 +18°C° 0 mm 2 mps 667 mmHg 83%
08:00 +20°C° 0 mm 2 mps 668 mmHg 76%
09:00 +23°C° 0 mm 2 mps 668 mmHg 69%
10:00 +24°C° 0 mm 2 mps 668 mmHg 63%
11:00 +26°C° 0 mm 2 mps 668 mmHg 58%
12:00 +27°C° 0 mm 2 mps 668 mmHg 52%
13:00 +27°C° 0 mm 2 mps 668 mmHg 54%
14:00 +27°C° 0 mm 2 mps 667 mmHg 55%
15:00 +26°C° 0 mm 2 mps 667 mmHg 57%
16:00 +24°C° 0 mm 2 mps 666 mmHg 66%
17:00 +22°C° 0 mm 1 mps 666 mmHg 75%
18:00 +20°C° 0 mm 1 mps 666 mmHg 84%
19:00 +20°C° 0 mm 1 mps 667 mmHg 84%
20:00 +18°C° 0 mm 2 mps 667 mmHg 84%
21:00 +18°C° 0 mm 2 mps 668 mmHg 84%
22:00 +17°C° 0 mm 2 mps 668 mmHg 84%
23:00 +17°C° 0 mm 2 mps 667 mmHg 84%

8 December, Tuesday

Time Temperature Precipitation Wind Pressure Humidity
00:00 +17°C° 0 mm 2 mps 667 mmHg 85%
01:00 +17°C° 0 mm 2 mps 667 mmHg 85%
02:00 +16°C° 0 mm 2 mps 667 mmHg 85%
03:00 +16°C° 0 mm 2 mps 666 mmHg 85%
04:00 +16°C° 0 mm 3 mps 667 mmHg 84%
05:00 +16°C° 0 mm 3 mps 667 mmHg 84%
06:00 +16°C° 0 mm 3 mps 667 mmHg 83%
07:00 +17°C° 0 mm 3 mps 668 mmHg 77%
08:00 +19°C° 0 mm 3 mps 669 mmHg 71%
09:00 +20°C° 0 mm 3 mps 669 mmHg 64%
10:00 +21°C° 0 mm 3 mps 669 mmHg 61%
11:00 +24°C° 0 mm 3 mps 669 mmHg 58%
12:00 +25°C° 0 mm 3 mps 669 mmHg 54%
13:00 +25°C° 0 mm 3 mps 669 mmHg 55%
14:00 +24°C° 0 mm 2 mps 668 mmHg 55%
15:00 +24°C° 0 mm 2 mps 668 mmHg 56%
16:00 +23°C° 0 mm 2 mps 668 mmHg 62%
17:00 +20°C° 0 mm 2 mps 667 mmHg 67%
18:00 +18°C° 0 mm 2 mps 667 mmHg 73%
19:00 +17°C° 0 mm 2 mps 668 mmHg 75%
20:00 +17°C° 0 mm 3 mps 668 mmHg 76%
21:00 +16°C° 0 mm 3 mps 669 mmHg 77%
22:00 +16°C° 0 mm 3 mps 668 mmHg 78%
23:00 +16°C° 0 mm 3 mps 668 mmHg 78%

9 December, Wednesday

Time Temperature Precipitation Wind Pressure Humidity
00:00 +14°C° 0 mm 3 mps 668 mmHg 79%
01:00 +14°C° 0 mm 3 mps 668 mmHg 79%
02:00 +14°C° 0 mm 3 mps 667 mmHg 79%
03:00 +14°C° 0 mm 3 mps 667 mmHg 79%
04:00 +14°C° 0 mm 3 mps 667 mmHg 79%
05:00 +14°C° 0 mm 3 mps 668 mmHg 79%
06:00 +14°C° 0 mm 3 mps 668 mmHg 78%
07:00 +17°C° 0 mm 3 mps 669 mmHg 73%
08:00 +18°C° 0 mm 3 mps 669 mmHg 68%
09:00 +20°C° 0 mm 3 mps 670 mmHg 62%
10:00 +21°C° 0 mm 3 mps 670 mmHg 59%
11:00 +22°C° 0 mm 3 mps 670 mmHg 56%
12:00 +25°C° 0 mm 3 mps 670 mmHg 52%
13:00 +24°C° 0 mm 3 mps 669 mmHg 53%
14:00 +24°C° 0 mm 3 mps 669 mmHg 54%
15:00 +24°C° 0 mm 2 mps 668 mmHg 54%
16:00 +21°C° 0 mm 2 mps 668 mmHg 60%
17:00 +19°C° 0 mm 2 mps 668 mmHg 66%
18:00 +17°C° 0 mm 2 mps 667 mmHg 73%
19:00 +17°C° 0 mm 2 mps 668 mmHg 74%
20:00 +16°C° 0 mm 3 mps 668 mmHg 75%
21:00 +16°C° 0 mm 3 mps 668 mmHg 76%
22:00 +14°C° 0 mm 3 mps 668 mmHg 77%
23:00 +14°C° 0 mm 3 mps 668 mmHg 78%

10 December, Thursday

Time Temperature Precipitation Wind Pressure Humidity
00:00 +14°C° 0 mm 3 mps 668 mmHg 79%
01:00 +14°C° 0 mm 3 mps 667 mmHg 80%
02:00 +13°C° 0 mm 3 mps 667 mmHg 80%
03:00 +13°C° 0 mm 3 mps 666 mmHg 80%
04:00 +13°C° 0 mm 3 mps 666 mmHg 80%
05:00 +13°C° 0 mm 3 mps 667 mmHg 80%
06:00 +13°C° 0 mm 3 mps 667 mmHg 79%
07:00 +14°C° 0 mm 3 mps 668 mmHg 74%
08:00 +17°C° 0 mm 2 mps 668 mmHg 69%
09:00 +19°C° 0 mm 2 mps 669 mmHg 64%
10:00 +21°C° 0 mm 2 mps 669 mmHg 59%
11:00 +23°C° 0 mm 2 mps 669 mmHg 55%
12:00 +25°C° 0 mm 2 mps 669 mmHg 50%
13:00 +25°C° 0 mm 2 mps 669 mmHg 52%
14:00 +24°C° 0 mm 2 mps 668 mmHg 54%
15:00 +24°C° 0 mm 2 mps 667 mmHg 56%
16:00 +22°C° 0 mm 1 mps 667 mmHg 64%
17:00 +20°C° 0 mm 1 mps 667 mmHg 72%
18:00 +18°C° 0 mm 1 mps 666 mmHg 80%
19:00 +18°C° 0 mm 1 mps 667 mmHg 79%
20:00 +16°C° 0 mm 1 mps 667 mmHg 79%
21:00 +16°C° 0 mm 2 mps 667 mmHg 79%
22:00 +15°C° 0 mm 2 mps 667 mmHg 79%
23:00 +15°C° 0 mm 2 mps 667 mmHg 80%
Show more